TimeMDT,TemperatureF,Dew PointF,Humidity,Sea Level PressureIn,VisibilityMPH,Wind Direction,Wind SpeedMPH,Gust SpeedMPH,PrecipitationIn,Events,Conditions,WindDirDegrees,DateUTC
12:53 AM,59.0,27.0,29,29.95,10.0,Calm,Calm,-,N/A,,Clear,0,2013-06-13 06:53:00
1:53 AM,57.9,27.0,31,29.94,10.0,North,3.5,-,N/A,,Clear,360,2013-06-13 07:53:00
2:53 AM,53.1,28.0,38,29.95,10.0,Calm,Calm,-,N/A,,Clear,0,2013-06-13 08:53:00
3:53 AM,54.0,27.0,35,29.94,10.0,Calm,Calm,-,N/A,,Clear,0,2013-06-13 09:53:00
4:53 AM,52.0,28.0,40,29.95,10.0,Calm,Calm,-,N/A,,Clear,0,2013-06-13 10:53:00
5:53 AM,50.0,27.0,41,29.98,10.0,NNW,5.8,-,N/A,,Clear,330,2013-06-13 11:53:00
6:53 AM,48.9,28.0,44,30.01,10.0,Calm,Calm,-,N/A,,Clear,0,2013-06-13 12:53:00
7:53 AM,57.9,30.0,35,30.00,10.0,Calm,Calm,-,N/A,,Clear,0,2013-06-13 13:53:00
8:53 AM,69.1,30.9,24,30.00,10.0,Calm,Calm,-,N/A,,Clear,0,2013-06-13 14:53:00
9:53 AM,77.0,23.0,13,29.97,10.0,ENE,4.6,-,N/A,,Clear,60,2013-06-13 15:53:00
10:53 AM,81.0,24.1,12,29.95,10.0,Calm,Calm,-,N/A,,Clear,0,2013-06-13 16:53:00
11:53 AM,84.9,26.1,12,29.94,10.0,WSW,8.1,20.7,N/A,,Clear,240,2013-06-13 17:53:00
12:53 PM,89.1,26.1,10,29.91,10.0,SW,16.1,25.3,N/A,,Clear,220,2013-06-13 18:53:00
1:10 PM,87.8,24.8,10,30.20,10.0,SW,11.5,23.0,N/A,,Clear,220,2013-06-13 19:10:00
1:53 PM,87.1,24.1,10,29.89,10.0,SW,9.2,-,N/A,,Clear,220,2013-06-13 19:53:00
2:53 PM,90.0,26.1,10,29.88,10.0,WSW,17.3,27.6,N/A,,Clear,240,2013-06-13 20:53:00
3:53 PM,84.9,28.0,13,29.89,10.0,WSW,13.8,27.6,N/A,,Clear,240,2013-06-13 21:53:00
4:53 PM,86.0,28.9,13,29.87,10.0,WSW,9.2,18.4,N/A,,Clear,250,2013-06-13 22:53:00
5:38 PM,86.0,28.4,12,30.12,10.0,NW,17.3,25.3,N/A,,Clear,310,2013-06-13 23:38:00
5:53 PM,84.9,30.0,14,29.86,10.0,WNW,17.3,23.0,N/A,,Clear,300,2013-06-13 23:53:00
6:53 PM,82.0,30.0,15,29.87,10.0,West,6.9,-,N/A,,Clear,260,2013-06-14 00:53:00
7:53 PM,79.0,28.0,15,29.86,10.0,WSW,3.5,-,N/A,,Clear,240,2013-06-14 01:53:00
8:53 PM,66.9,32.0,27,29.86,10.0,Calm,Calm,-,N/A,,Clear,0,2013-06-14 02:53:00
9:53 PM,73.0,35.1,25,29.86,10.0,East,11.5,-,N/A,,Mostly Cloudy,90,2013-06-14 03:53:00
10:53 PM,73.9,34.0,23,29.87,10.0,NNE,6.9,-,0.00,,Scattered Clouds,20,2013-06-14 04:53:00
11:53 PM,70.0,36.0,29,29.88,10.0,North,5.8,-,N/A,,Mostly Cloudy,350,2013-06-14 05:53:00